TimeCST,TemperatureF,Dew PointF,Humidity,Sea Level PressureIn,VisibilityMPH,Wind Direction,Wind SpeedMPH,Gust SpeedMPH,PrecipitationIn,Events,Conditions,WindDirDegrees,DateUTC
12:53 AM,63.0,60.1,90,30.17,10.0,West,3.5,-,N/A,,Clear,270,2012-11-21 06:53:00
1:53 AM,59.0,57.0,93,30.18,8.0,Calm,Calm,-,N/A,,Clear,0,2012-11-21 07:53:00
2:15 AM,57.2,55.4,94,30.18,2.0,Calm,Calm,-,N/A,,Clear,0,2012-11-21 08:15:00
2:25 AM,59.0,55.4,88,30.18,8.0,NNW,3.5,-,N/A,,Clear,330,2012-11-21 08:25:00
2:53 AM,57.9,55.9,93,30.17,6.0,Calm,Calm,-,N/A,,Clear,0,2012-11-21 08:53:00
3:53 AM,57.9,55.0,90,30.18,6.0,NNW,3.5,-,N/A,,Clear,340,2012-11-21 09:53:00
4:53 AM,57.0,55.0,93,30.18,4.0,Calm,Calm,-,N/A,,Clear,0,2012-11-21 10:53:00
5:00 AM,55.4,55.4,100,30.19,1.2,Calm,Calm,-,N/A,,Clear,0,2012-11-21 11:00:00
5:02 AM,55.4,53.6,94,30.19,0.8,Calm,Calm,-,N/A,,Mist,0,2012-11-21 11:02:00
5:06 AM,55.4,53.6,94,30.19,0.2,NW,3.5,-,N/A,Fog,Fog,310,2012-11-21 11:06:00
5:15 AM,55.4,53.6,94,30.19,0.8,Calm,Calm,-,N/A,,Mist,0,2012-11-21 11:15:00
5:17 AM,55.4,53.6,94,30.19,1.2,Calm,Calm,-,N/A,,Partly Cloudy,0,2012-11-21 11:17:00
5:20 AM,55.4,53.6,94,30.19,3.0,Calm,Calm,-,N/A,,Partly Cloudy,0,2012-11-21 11:20:00
5:26 AM,55.4,53.6,94,30.19,1.8,North,3.5,-,N/A,,Partly Cloudy,360,2012-11-21 11:26:00
5:28 AM,55.4,53.6,94,30.19,0.8,North,3.5,-,N/A,,Mist,360,2012-11-21 11:28:00
5:36 AM,55.4,53.6,94,30.19,0.5,North,3.5,-,N/A,Fog,Fog,350,2012-11-21 11:36:00
5:41 AM,53.6,53.6,100,30.19,1.0,Calm,Calm,-,N/A,,Clear,0,2012-11-21 11:41:00
5:53 AM,54.0,53.1,97,30.19,1.0,Calm,Calm,-,N/A,,Clear,0,2012-11-21 11:53:00
6:06 AM,55.4,53.6,94,30.20,3.0,Calm,Calm,-,N/A,,Clear,0,2012-11-21 12:06:00
6:11 AM,55.4,53.6,94,30.20,1.8,NW,3.5,-,N/A,,Clear,310,2012-11-21 12:11:00
6:16 AM,55.4,53.6,94,30.20,0.5,NNW,3.5,-,N/A,Fog,Fog,330,2012-11-21 12:16:00
6:25 AM,55.4,53.6,94,30.21,1.0,WNW,3.5,-,N/A,,Clear,300,2012-11-21 12:25:00
6:30 AM,55.4,53.6,94,30.21,3.0,NW,3.5,-,N/A,,Clear,310,2012-11-21 12:30:00
6:51 AM,55.4,53.6,94,30.21,1.5,NNW,3.5,-,N/A,,Clear,340,2012-11-21 12:51:00
6:53 AM,55.0,54.0,96,30.21,0.5,NNW,3.5,-,N/A,Fog,Fog,340,2012-11-21 12:53:00
7:08 AM,55.4,53.6,94,30.22,1.8,WNW,4.6,-,N/A,,Clear,300,2012-11-21 13:08:00
7:14 AM,55.4,53.6,94,30.22,3.0,West,3.5,-,N/A,,Clear,280,2012-11-21 13:14:00
7:53 AM,60.1,57.9,93,30.22,6.0,NW,3.5,-,N/A,,Clear,310,2012-11-21 13:53:00
8:53 AM,66.9,61.0,81,30.23,9.0,Calm,Calm,-,N/A,,Clear,0,2012-11-21 14:53:00
9:53 AM,73.9,62.1,66,30.25,10.0,SSE,4.6,-,N/A,,Clear,160,2012-11-21 15:53:00
10:53 AM,78.1,57.9,50,30.24,10.0,Variable,6.9,-,N/A,,Clear,0,2012-11-21 16:53:00
11:53 AM,79.0,55.0,44,30.22,10.0,ESE,9.2,-,N/A,,Clear,110,2012-11-21 17:53:00
12:53 PM,82.0,48.9,31,30.18,10.0,SE,8.1,-,N/A,,Partly Cloudy,130,2012-11-21 18:53:00
1:53 PM,84.0,48.0,28,30.15,10.0,ESE,9.2,25.3,N/A,,Partly Cloudy,120,2012-11-21 19:53:00
2:53 PM,82.9,53.1,36,30.14,10.0,East,13.8,21.9,N/A,,Partly Cloudy,90,2012-11-21 20:53:00
3:53 PM,80.1,53.1,39,30.14,10.0,SE,11.5,-,N/A,,Scattered Clouds,130,2012-11-21 21:53:00
4:53 PM,78.1,54.0,43,30.14,10.0,SE,11.5,-,N/A,,Clear,130,2012-11-21 22:53:00
5:53 PM,73.0,57.0,57,30.16,10.0,SE,11.5,-,N/A,,Clear,130,2012-11-21 23:53:00
6:53 PM,71.1,57.9,63,30.17,10.0,ESE,8.1,-,N/A,,Clear,120,2012-11-22 00:53:00
7:53 PM,69.1,59.0,70,30.18,10.0,East,8.1,-,N/A,,Clear,100,2012-11-22 01:53:00
8:53 PM,64.9,57.9,78,30.19,10.0,ESE,4.6,-,N/A,,Clear,110,2012-11-22 02:53:00
9:53 PM,63.0,57.0,81,30.19,10.0,SSE,3.5,-,N/A,,Clear,150,2012-11-22 03:53:00
10:53 PM,60.1,57.0,90,30.18,10.0,SSE,3.5,-,N/A,,Clear,160,2012-11-22 04:53:00
11:43 PM,57.2,55.4,94,30.17,1.8,Calm,Calm,-,N/A,,Clear,0,2012-11-22 05:43:00
11:53 PM,57.9,55.0,90,30.16,0.8,Calm,Calm,-,N/A,,Clear,0,2012-11-22 05:53:00